Regional Weather Roundup
Issued by NWS Raleigh/Durham, NC

Home | Current Version | Previous Version | Text Only | Print | Product List | Glossary On
Versions: 1 2 3 4 5 6 7 8 9 10 11 12 13 14 15 16 17 18 19 20 21 22 23 24 25 26 27 28 29 30 31 32 33 34 35 36 37 38 39 40 41 42 43 44 45 46 47 48 49 50
000
ASUS42 KRAH 221610
RWRRAH
NORTH CAROLINA WEATHER ROUNDUP
NATIONAL WEATHER SERVICE RALEIGH NC
1100 AM EST SAT NOV 22 2014

NOTE: "FAIR" INDICATES FEW OR NO CLOUDS BELOW 12,000 FEET WITH NO
SIGNIFICANT WEATHER AND/OR OBSTRUCTIONS TO VISIBILITY.

NCZ001-053-055-056-065-067-221700-
WESTERN NORTH CAROLINA

CITY           SKY/WX    TMP DP  RH WIND       PRES   REMARKS
ASHEVILLE      SUNNY     44  18  35 S8        30.47F
JEFFERSON      MOSUNNY   40  11  31 SE5       30.41F
MORGANTON      SUNNY     44  15  30 S5        30.55F
HICKORY        SUNNY     42  13  30 S6        30.51F
RUTHERFORDTON  SUNNY     43  16  33 S6        30.53F
MOUNT AIRY     SUNNY     41  15  34 SW5       30.51F
BOONE          SUNNY     45  15  30 SE7       30.41F
$$

NCZ021-022-025-041-071-084-088-221700-
CENTRAL NORTH CAROLINA

CITY           SKY/WX    TMP DP  RH WIND       PRES   REMARKS
CHARLOTTE      MOSUNNY   45   9  23 CALM      30.54F
GREENSBORO     PTSUNNY   42  13  30 SW6       30.51F
WINSTON-SALEM  SUNNY     41  11  29 VRB7      30.53F
RALEIGH-DURHAM MOSUNNY   44  14  29 VRB3      30.56F
FORT BRAGG     SUNNY     46  11  24 E3        30.55F
FAYETTEVILLE   SUNNY     46  16  30 CALM      30.55F
BURLINGTON     SUNNY     43  15  32 S7        30.53F
LAURINBURG     SUNNY     48  19  31 VRB3      30.56F
$$

NCZ011-015-027-028-043-044-047-080-103-221700-
NORTHEASTERN NORTH CAROLINA

CITY           SKY/WX    TMP DP  RH WIND       PRES   REMARKS
ROCKY MT-WILSO SUNNY     45  14  28 VRB6      30.57F
GREENVILLE     SUNNY     46  23  39 S3        30.56F
WASHINGTON     SUNNY     47  29  49 SE7       30.57F
ELIZABETH CITY SUNNY     50  26  39 SW7       30.57F
MANTEO         SUNNY     48  32  52 CALM      30.56F
CAPE HATTERAS  SUNNY     48  38  68 NE7       30.55F
$$

NCZ078-087-090-091-093-098-101-221700-
SOUTHEASTERN NORTH CAROLINA

CITY           SKY/WX    TMP DP  RH WIND       PRES   REMARKS
LUMBERTON      SUNNY     51  27  39 CALM      30.55F
GOLDSBORO      SUNNY     49  20  31 CALM      30.54F
KENANSVILLE    SUNNY     49  18  29 CALM      30.56F
NEW BERN       SUNNY     50  25  37 CALM      30.57F
CHERRY POINT   SUNNY     50  35  56 NE8       30.56F
BEAUFORT       SUNNY     53  36  52 NE7       30.54F
JACKSONVILLE   SUNNY     50  31  48 E3        30.55F
WILMINGTON     SUNNY     52  38  58 NE7       30.53F
$$



USA.gov is the U.S. government's official web portal to all federal, state and local government web resources and services.